Location: Bucquoy
(50.1391°N, 2.7097°E)
Time: 21:46:03
(UTC+00:00)

Cosmos 2123 Rocket - Pass Details

Date: 06 May 2021
Orbit: 962 x 991 km, 82.9° (Epoch: 21 June)

Event Time Altitude Azimuth Distance (km) Brightness Sun altitude
Exits shadow 02:23:01 - 173° (S) 2,821 6.0 -14.9°
Reaches altitude 10° 02:23:22 10° 172° (S) 2,693 5.9 -14.8°
Maximum altitude 02:29:25 62° 94° (E) 1,078 4.4 -14.2°
Drops below altitude 10° 02:35:32 10° 15° (NNE) 2,719 7.4 -13.6°
Sets 02:38:04 0° 12° (NNE) 3,673 8.1 -13.3°
